Location: Chervonnoye
(48.6000°N, 34.4000°E)
Time: 05:17:51
(UTC+00:00)

Cosmos 2237 Rocket - Pass Details

Date: 23 November 2020
Orbit: 833 x 851 km, 71.0° (Epoch: 18 January)

Event Time Altitude Azimuth Distance (km) Brightness Sun altitude
Rises 16:14:10 0° 222° (SW) 3,370 6.0 -22.6°
Reaches altitude 10° 16:16:39 10° 227° (SW) 2,440 5.3 -23.0°
Maximum altitude 16:22:07 53° 304° (NW) 1,020 2.8 -23.9°
Enters shadow 16:25:43 21° 13° (NNE) 1,785 3.7 -24.5°
